Regional Weather Roundup
Issued by NWS

Home | Current Version | Previous Version | Graphics & Text | Print | Product List | Glossary On
Versions: 1 2 3 4 5 6 7 8 9 10 11 12 13 14 15 16 17 18 19 20 21 22 23 24 25 26 27 28 29 30 31 32 33 34 35 36 37 38 39 40 41 42 43 44 45 46 47 48 49 50
000
ASUS43 KOAX 040102
RWRNE

WEATHER ROUNDUP FOR NEBRASKA
NATIONAL WEATHER SERVICE OMAHA NE
800 PM CDT THU SEP 03 2015

NOTES: SATELLITE DATA IS BEING USED TO AUGMENT CLOUD COVER ABOVE
       12000 FEET.
       "FAIR" INDICATES FEW OR NO CLOUDS BELOW 12,000 FEET WITH NO
       SIGNIFICANT WEATHER AND/OR OBSTRUCTIONS TO VISIBILITY.

  * THESE STATIONS DO NOT REPORT WEATHER SUCH AS RAIN...SNOW OR FOG.

NEZ001>004-019>022-054>056-040200-
NEBRASKA PANHANDLE

CITY           SKY/WX    TMP DP  RH WIND       PRES   REMARKS
SCOTTSBLUFF    LGT RAIN  81  47  30 S7        29.86R
ALLIANCE       CLOUDY    81  47  30 NW5G17    29.87R
CHADRON        CLOUDY    87  44  22 S15G23    29.78R
KIMBALL        CLOUDY    71  51  49 W8        29.91R
SIDNEY         MOCLDY    78  48  34 W8        29.89R
$$

NEZ057>060-069>072-079>082-040200-
SOUTHWEST NEBRASKA

CITY           SKY/WX    TMP DP  RH WIND       PRES   REMARKS
NORTH PLATTE   CLOUDY    82  67  60 E9        29.74F
IMPERIAL       CLOUDY    85  54  34 SW6       29.78R
LEXINGTON      CLOUDY    85  65  50 SE7       29.74S
MC COOK        CLOUDY    91  57  31 S17G24    29.74R
OGALLALA       MOCLDY    87  53  31 N14       29.77F
$$

NEZ005>010-023>029-035>040-094-040200-
NORTH CENTRAL NEBRASKA

CITY           SKY/WX    TMP DP  RH WIND       PRES   REMARKS
VALENTINE      CLOUDY    86  55  34 W12       29.78R
AINSWORTH      CLOUDY    84  63  49 S8        29.77R
BROKEN BOW     PTCLDY    85  64  49 E6        29.76S
O`NEILL        MOCLDY    83  71  66 SE8       29.76S
ORD            CLEAR     88  63  43 SE7       29.74S
THEDFORD       MOCLDY    87  65  47 SE8       29.79R
$$

NEZ041-046>049-061>064-073>077-083>087-040200-
SOUTH CENTRAL NEBRASKA

CITY           SKY/WX    TMP DP  RH WIND       PRES   REMARKS
GRAND ISLAND   PTCLDY    84  67  56 SE10      29.77R
AURORA         PTCLDY    83  66  57 SE10      29.78R
HASTINGS       MOCLDY    88  63  43 S12       29.77S
HEBRON         PTCLDY    87  60  39 S9        29.79S
HOLDREGE       CLOUDY    88  56  33 S10       29.76R
KEARNEY *      MOCLDY    84  63  48 SE10      29.76R
YORK           CLEAR     84  66  54 S10       29.79R
$$

NEZ011>018-030>034-042>045-040200-
NORTHEAST NEBRASKA

CITY           SKY/WX    TMP DP  RH WIND       PRES   REMARKS
NORFOLK        PTCLDY    82  73  74 SE7       29.76S
ALBION         PTCLDY    83  70  63 SE8       29.77S
BLAIR          FAIR      84  69  60 S13       29.80S
COLUMBUS *     PTCLDY    84  70  61 S6        29.77S
FREMONT        PTCLDY    85  72  65 SE8       29.79S HX  90
TEKAMAH        CLEAR     82  74  76 SE12      29.78R
$$

NEZ050>053-065>068-078-088>093-040200-
SOUTHEAST NEBRASKA

CITY           SKY/WX    TMP DP  RH WIND       PRES   REMARKS
LINCOLN        CLEAR     86  68  54 S12       29.80R
OMAHA EPPLEY   PTCLDY    85  71  63 SE14      29.80R HX  90
BEATRICE       PTCLDY    85  67  53 S10       29.81R
FALLS CITY     CLEAR     81  69  67 S8        29.83R
NEBRASKA CITY  CLEAR     82  64  54 S12       29.82S
PLATTSMOUTH    PTCLDY    82  68  62 SE8       29.82R
$$

NEZ044-045-051>053-067-040200-
OMAHA AREA

CITY           SKY/WX    TMP DP  RH WIND       PRES   REMARKS
EPPLEY FIELD   PTCLDY    85  71  63 SE14      29.80R HX  90
BLAIR          CLEAR     84  69  60 S13       29.80S
FREMONT        PTCLDY    85  72  65 SE8       29.79S HX  90
MILLARD        PTCLDY    85  73  65 SE9       29.79S HX  91
OFFUTT AFB     CLEAR     83  72  69 SE10      29.80R
PLATTSMOUTH    PTCLDY    82  68  62 SE8       29.82R
WAHOO          FAIR      82  73  72 SE8       29.79R
$$



USA.gov is the U.S. government's official web portal to all federal, state and local government web resources and services.